Find Starlink 32902

NORAD ID: 62898 Int'l Des: 2025-024 Owner: SPXS Country: US Constellation: starlink operational
LEOCIRCULAR

实时位置

正在加载3D地球...

关于 Starlink 32902

正在加载描述...

即将过境

Passes for default location (London). Set your location on the main map for personalized predictions.

高度历史

Loading altitude history...

两行轨道根数

1 62898U 25024V 26127.88476030 .00018664 00000-0 68574-3 0 9998
2 62898 43.0056 350.6638 0002193 275.7764 84.2838 15.27594377 71323
Epoch: May 7, 2026 • Age: 3 hours

当前状态

高度 486.1 km
速度 7.63 km/s
星下点 37.09°N, 168.08°E
发射日期 Feb 4, 2025
运行时间 1.2 years
类型 internet

技术详情

分类 Payload
质量 730.00 kg
干质量 700.00 kg
总质量 730.00 kg
长度 0.30 m
直径 4.10 m
跨度 29.00 m
形状 Box + pan
制造商 SPXS
平台类型 Starlink V2M
阶段状态 In Orbit
所有者/国家 SPXS/US

Most Searched